Location: Bay Ridge
(40.6340°N, 74.0146°W)
Time: 15:50:28
(UTC+00:00)

Cosmos 1898 Rocket - Pass Details

Date: 15 November 2019
Orbit: 753 x 785 km, 74.0° (Epoch: 10 December)

Event Time Altitude Azimuth Distance (km) Brightness Sun altitude
Rises 09:47:57 0° 202° (SSW) 3,204 6.6 -21.7°
Reaches altitude 10° 09:50:18 10° 204° (SSW) 2,287 5.8 -21.3°
Maximum altitude 09:55:29 75° 290° (WNW) 798 3.4 -20.3°
Drops below altitude 10° 10:00:46 10° 16° (NNE) 2,323 6.1 -19.3°
Sets 10:03:10 0° 18° (NNE) 3,259 6.9 -18.9°
